Location: ??????
(41.3747°N, 22.5491°E)
Time: 08:18:05
(UTC+00:00)

Cosmos 1328 Rocket - Pass Details

Date: 01 December 2020
Orbit: 602 x 626 km, 82.5° (Epoch: 17 January)

Event Time Altitude Azimuth Distance (km) Brightness Sun altitude
Rises 15:55:07 0° 184° (S) 2,840 7.3 -10.0°
Reaches altitude 10° 15:57:18 10° 184° (S) 1,944 6.4 -10.4°
Maximum altitude 16:01:36 84° 97° (E) 616 3.5 -11.2°
Drops below altitude 10° 16:05:58 10° 9° (N) 1,973 5.9 -12.0°
Sets 16:08:13 0° 9° (N) 2,886 6.7 -12.4°
